Погода в Хакубе

Япония     36°36′39″N   137°50′32″E
темп.,
°C
ветер,
м/с
пор.,
м/с
влажн.,
%
обл.,
%
осадки,
мм/ч
давл.,
гПа
погр.,
м
22 октября, пт
пт2200:00−1юз118476 0.0 102018
03:00−1з11774 0.0 102011
06:00−1зюз11783 0.0 101911
09:00+5вюв226216 0.0 1017750
12:00+6в217098 0.1 1014782
15:00+4св118985 1.6 1014525
18:00+2св1299100 2.8 1016205
21:00+1ссв12100100 6.3 1018130
23 октября, сб
сб2300:00+1ссз129990 1.6 1017262
03:00−1зсз229457 1.8 1019167
06:000зсз239552 1.1 1021192
09:00+2ссз139072 2.6 1022537
12:00+3с128043 0.7 1022859
15:00+2ссз127239 0.8 1024853
18:00−3зсз339024 0.0 102977
21:00−3зсз228715 0.0 103151
24 октября, вс
вс2400:00−4з22833 0.0 103118
03:00−4з22792 0.0 103116
06:00−4з22791 0.0 103215
09:00+4вюв11620 0.0 1029476
12:00+7в12615 0.0 1025942
15:00+6в116778 0.0 1025690
18:000зюз22895 0.0 103017
21:000зюз228584 0.0 103118
25 октября, пн
пн2500:000зюз2279100 0.0 103017
03:00−1з3266100 0.0 103018
06:00−1зюз327036 0.0 103017
09:00+6юв126725 0.0 1026347
12:00+9вюв226115 0.0 1023968
15:00+8вюв1174100 0.1 1022443
18:00+4сз0188100 0.1 102511
21:00+4юз1190100 0.2 102514
26 октября, вт
вт2600:00+4юз1192100 0.0 102524
03:00+4юз119099 0.0 102313
06:00+2зюз119365 0.0 102511
09:00+8в11764 0.0 1022376
12:00+11в226664 0.0 1020915
15:00+9в227441 0.1 1019542
18:00+4зюз118887 0.0 102215
21:00+4юз119157 0.0 102115